Year,Month,Day,Hour,Minute,Value (Times are PST for temperature in C)
2007,06,07,12,12,14.00
2007,06,07,12,13,14.00
2007,06,07,12,14,13.90
2007,06,07,12,15,13.90
2007,06,07,12,16,13.80
2007,06,07,12,17,13.90
2007,06,07,12,18,13.90
2007,06,07,12,19,13.90
2007,06,07,12,20,13.90
2007,06,07,12,21,13.90
2007,06,07,12,22,13.80
2007,06,07,12,23,13.80
2007,06,07,12,24,13.70
2007,06,07,12,25,13.70
2007,06,07,12,26,13.70
2007,06,07,12,27,13.70
2007,06,07,12,28,13.70
2007,06,07,12,29,13.70
2007,06,07,12,30,13.70
2007,06,07,12,31,13.70
2007,06,07,12,32,13.70
2007,06,07,12,33,13.70
2007,06,07,12,34,13.70
2007,06,07,12,35,13.70
2007,06,07,12,36,13.70
2007,06,07,12,37,13.60
2007,06,07,12,38,13.60
2007,06,07,12,39,13.60
2007,06,07,12,40,13.50
2007,06,07,12,41,13.50
2007,06,07,12,42,13.50
2007,06,07,12,43,13.50
2007,06,07,12,44,13.50
2007,06,07,12,45,13.50
2007,06,07,12,46,13.50
2007,06,07,12,47,13.50
2007,06,07,12,48,13.50
2007,06,07,12,49,13.50
2007,06,07,12,50,13.40
2007,06,07,12,51,13.40
2007,06,07,12,52,13.40
2007,06,07,12,53,13.40
2007,06,07,12,54,13.40
2007,06,07,12,55,13.40
2007,06,07,12,56,13.40
2007,06,07,12,57,13.40
2007,06,07,12,58,13.40
2007,06,07,12,59,13.40
2007,06,07,13,00,13.30
2007,06,07,13,01,13.30
2007,06,07,13,02,13.20
2007,06,07,13,03,13.20
2007,06,07,13,04,13.20
2007,06,07,13,05,13.20
2007,06,07,13,06,13.20
2007,06,07,13,07,13.20
2007,06,07,13,08,13.20
2007,06,07,13,09,13.20
2007,06,07,13,10,13.20
2007,06,07,13,11,13.20
2007,06,07,13,12,13.10
2007,06,07,13,13,13.10
2007,06,07,13,14,13.00
2007,06,07,13,15,13.00
2007,06,07,13,16,12.90
2007,06,07,13,17,12.90
2007,06,07,13,18,12.90
2007,06,07,13,19,12.80
2007,06,07,13,20,12.80
2007,06,07,13,21,12.80
2007,06,07,13,22,12.80
2007,06,07,13,23,12.80
2007,06,07,13,24,12.90
2007,06,07,13,25,12.90
2007,06,07,13,26,12.90
2007,06,07,13,27,12.90
2007,06,07,13,28,12.90
2007,06,07,13,29,13.00
2007,06,07,13,30,13.00
2007,06,07,13,31,13.10
2007,06,07,13,32,13.10
2007,06,07,13,33,13.10
2007,06,07,13,34,13.10
2007,06,07,13,35,13.10
2007,06,07,13,36,13.10
2007,06,07,13,37,13.10
2007,06,07,13,38,13.10
2007,06,07,13,39,13.10
2007,06,07,13,40,13.10
2007,06,07,13,41,13.20
2007,06,07,13,42,13.20
2007,06,07,13,43,13.20
2007,06,07,13,44,13.20
2007,06,07,13,45,13.20
2007,06,07,13,46,13.20
2007,06,07,13,47,13.20
2007,06,07,13,48,13.20
2007,06,07,13,49,13.20
2007,06,07,13,50,13.20
2007,06,07,13,51,13.20
2007,06,07,13,52,13.20
2007,06,07,13,53,13.20
2007,06,07,13,54,13.20
2007,06,07,13,55,13.20
2007,06,07,13,56,13.20
2007,06,07,13,57,13.30
2007,06,07,13,58,13.30
2007,06,07,13,59,13.30
2007,06,07,14,00,13.30
2007,06,07,14,01,13.30
2007,06,07,14,02,13.30
2007,06,07,14,03,13.30
2007,06,07,14,04,13.30
2007,06,07,14,05,13.30
2007,06,07,14,06,13.30
2007,06,07,14,07,13.30
2007,06,07,14,08,13.20
2007,06,07,14,09,13.20
2007,06,07,14,10,13.20
2007,06,07,14,11,13.20
2007,06,07,14,12,13.20
2007,06,07,14,13,13.20
2007,06,07,14,14,13.20
2007,06,07,14,15,13.20
2007,06,07,14,16,13.30
2007,06,07,14,17,13.30
2007,06,07,14,18,13.30
2007,06,07,14,19,13.30
2007,06,07,14,20,13.20
2007,06,07,14,21,13.20
2007,06,07,14,22,13.20
2007,06,07,14,23,13.10
2007,06,07,14,24,13.10
2007,06,07,14,25,13.10
2007,06,07,14,26,13.10
2007,06,07,14,27,13.10
2007,06,07,14,28,13.10
2007,06,07,14,29,13.10
2007,06,07,14,30,13.10
2007,06,07,14,31,13.10
2007,06,07,14,32,13.10
2007,06,07,14,33,13.20
2007,06,07,14,34,13.20
2007,06,07,14,35,13.20
2007,06,07,14,36,13.20
2007,06,07,14,37,13.20
2007,06,07,14,38,13.20
2007,06,07,14,39,13.20
2007,06,07,14,40,13.20
2007,06,07,14,41,13.20
2007,06,07,14,42,13.30
2007,06,07,14,43,13.30
2007,06,07,14,44,13.30
2007,06,07,14,45,13.30
2007,06,07,14,46,13.30
2007,06,07,14,47,13.30
2007,06,07,14,48,13.30
2007,06,07,14,49,13.30
2007,06,07,14,50,13.30
2007,06,07,14,51,13.30
2007,06,07,14,52,13.30
2007,06,07,14,53,13.30
2007,06,07,14,54,13.40
2007,06,07,14,55,13.30
2007,06,07,14,56,13.30
2007,06,07,14,57,13.30
2007,06,07,14,58,13.30
2007,06,07,14,59,13.30
2007,06,07,15,00,13.30
2007,06,07,15,01,13.20
2007,06,07,15,02,13.20
2007,06,07,15,03,13.20
2007,06,07,15,04,13.20
2007,06,07,15,05,13.20
2007,06,07,15,06,13.20
2007,06,07,15,07,13.30
2007,06,07,15,08,13.30
2007,06,07,15,09,13.30
2007,06,07,15,10,13.20
2007,06,07,15,11,13.20
2007,06,07,15,12,13.20
2007,06,07,15,13,13.20
2007,06,07,15,14,13.20
2007,06,07,15,15,13.20
2007,06,07,15,16,13.20
2007,06,07,15,17,13.20
2007,06,07,15,18,13.20
2007,06,07,15,19,13.20
2007,06,07,15,20,13.20
2007,06,07,15,21,13.30
2007,06,07,15,22,13.30
2007,06,07,15,23,13.30
2007,06,07,15,24,13.30
2007,06,07,15,25,13.40
2007,06,07,15,26,13.40
2007,06,07,15,27,13.40
2007,06,07,15,28,13.40
2007,06,07,15,29,13.40
2007,06,07,15,30,13.50
2007,06,07,15,31,13.50
2007,06,07,15,32,13.60
2007,06,07,15,33,13.60
2007,06,07,15,34,13.60
2007,06,07,15,35,13.60
2007,06,07,15,36,13.60
2007,06,07,15,37,13.60
2007,06,07,15,38,13.60
2007,06,07,15,39,13.60
2007,06,07,15,40,13.70
2007,06,07,15,41,13.70
2007,06,07,15,42,13.70
2007,06,07,15,43,13.80
2007,06,07,15,44,13.80
2007,06,07,15,45,13.80
2007,06,07,15,46,13.80
2007,06,07,15,47,13.80
2007,06,07,15,48,13.80
2007,06,07,15,49,13.80
2007,06,07,15,50,13.90
2007,06,07,15,51,13.90
2007,06,07,15,52,14.00
2007,06,07,15,53,14.10
2007,06,07,15,54,14.10
2007,06,07,15,55,14.20
2007,06,07,15,56,14.30
2007,06,07,15,57,14.40
2007,06,07,15,58,14.40
2007,06,07,15,59,14.50
2007,06,07,16,00,14.50
2007,06,07,16,01,14.60
2007,06,07,16,02,14.60
2007,06,07,16,03,14.60
2007,06,07,16,04,14.60
2007,06,07,16,05,14.60
2007,06,07,16,06,14.50
2007,06,07,16,07,14.50
2007,06,07,16,08,14.40
2007,06,07,16,09,14.30
2007,06,07,16,10,14.20
2007,06,07,16,11,14.00
2007,06,07,16,12,13.90
2007,06,07,16,13,13.80
2007,06,07,16,14,13.80
2007,06,07,16,15,13.70
2007,06,07,16,16,13.60
2007,06,07,16,17,13.60
2007,06,07,16,18,13.60
2007,06,07,16,19,13.50
2007,06,07,16,20,13.50
2007,06,07,16,21,13.60
2007,06,07,16,22,13.60
2007,06,07,16,23,13.60
2007,06,07,16,24,13.70
2007,06,07,16,25,13.70
2007,06,07,16,26,13.70
2007,06,07,16,27,13.70
2007,06,07,16,28,13.70
2007,06,07,16,29,13.80
2007,06,07,16,30,13.80
2007,06,07,16,31,13.80
2007,06,07,16,32,13.80
2007,06,07,16,33,13.90
2007,06,07,16,34,13.90
2007,06,07,16,35,13.90
2007,06,07,16,36,13.90
2007,06,07,16,37,13.90
2007,06,07,16,38,13.90
2007,06,07,16,39,13.90
2007,06,07,16,40,13.90
2007,06,07,16,41,13.90
2007,06,07,16,42,13.90
2007,06,07,16,43,13.90
2007,06,07,16,44,13.90
2007,06,07,16,45,13.90
2007,06,07,16,46,13.90
2007,06,07,16,47,13.90
2007,06,07,16,48,13.90
2007,06,07,16,49,13.80
2007,06,07,16,50,13.80
2007,06,07,16,51,13.80
2007,06,07,16,52,13.90
2007,06,07,16,53,13.90
2007,06,07,16,54,13.90
2007,06,07,16,55,13.90
2007,06,07,16,56,13.90
2007,06,07,16,57,13.90
2007,06,07,16,58,14.00
2007,06,07,16,59,14.00
2007,06,07,17,00,14.00
2007,06,07,17,01,14.00
2007,06,07,17,02,14.10
2007,06,07,17,03,14.20
2007,06,07,17,04,14.20
2007,06,07,17,05,14.20
2007,06,07,17,06,14.20
2007,06,07,17,07,14.20
2007,06,07,17,08,14.20
2007,06,07,17,09,14.20
2007,06,07,17,10,14.20
2007,06,07,17,11,14.20
2007,06,07,17,12,14.20
2007,06,07,17,13,14.20
2007,06,07,17,14,14.20
2007,06,07,17,15,14.20
2007,06,07,17,16,14.20
2007,06,07,17,17,14.30
2007,06,07,17,18,14.30
2007,06,07,17,19,14.30
2007,06,07,17,20,14.30
2007,06,07,17,21,14.30
2007,06,07,17,22,14.20
2007,06,07,17,23,14.20
2007,06,07,17,24,14.10
2007,06,07,17,25,14.00
2007,06,07,17,26,13.90
2007,06,07,17,27,13.80
2007,06,07,17,28,13.80
2007,06,07,17,29,13.80
2007,06,07,17,30,13.70
2007,06,07,17,31,13.70
2007,06,07,17,32,13.70
2007,06,07,17,33,13.70
2007,06,07,17,34,13.70
2007,06,07,17,35,13.70
2007,06,07,17,36,13.70
2007,06,07,17,37,13.70
2007,06,07,17,38,13.70
2007,06,07,17,39,13.70
2007,06,07,17,40,13.80
2007,06,07,17,41,13.80
2007,06,07,17,42,13.80
2007,06,07,17,43,13.90
2007,06,07,17,44,13.90
2007,06,07,17,45,14.00
2007,06,07,17,46,14.00
2007,06,07,17,47,14.10
2007,06,07,17,48,14.10
2007,06,07,17,49,14.10
2007,06,07,17,50,14.20
2007,06,07,17,51,14.20
2007,06,07,17,52,14.20
2007,06,07,17,53,14.20
2007,06,07,17,54,14.20
2007,06,07,17,55,14.20
2007,06,07,17,56,14.10
2007,06,07,17,57,14.10
2007,06,07,17,58,14.10
2007,06,07,17,59,14.10
2007,06,07,18,00,14.10
2007,06,07,18,01,14.10
2007,06,07,18,02,14.00
2007,06,07,18,03,14.00
2007,06,07,18,04,14.00
2007,06,07,18,05,14.00
2007,06,07,18,06,14.00
2007,06,07,18,07,14.10
2007,06,07,18,08,14.10
2007,06,07,18,09,14.10
2007,06,07,18,10,14.20
2007,06,07,18,11,14.20
2007,06,07,18,12,14.20
2007,06,07,18,13,14.30
2007,06,07,18,14,14.30
2007,06,07,18,15,14.30
2007,06,07,18,16,14.30
2007,06,07,18,17,14.30
2007,06,07,18,18,14.30
2007,06,07,18,19,14.30
2007,06,07,18,20,14.30
2007,06,07,18,21,14.30
2007,06,07,18,22,14.30
2007,06,07,18,23,14.30
2007,06,07,18,24,14.30
2007,06,07,18,25,14.30
2007,06,07,18,26,14.30
2007,06,07,18,27,14.30
2007,06,07,18,28,14.30
2007,06,07,18,29,14.30
2007,06,07,18,30,14.30
2007,06,07,18,31,14.30
2007,06,07,18,32,14.30
2007,06,07,18,33,14.40
2007,06,07,18,34,14.40
2007,06,07,18,35,14.50
2007,06,07,18,36,14.60
2007,06,07,18,37,14.60
2007,06,07,18,38,14.60
2007,06,07,18,39,14.50
2007,06,07,18,40,14.40
2007,06,07,18,41,14.30
2007,06,07,18,42,14.30
2007,06,07,18,43,14.20
2007,06,07,18,44,14.10
2007,06,07,18,45,14.10
2007,06,07,18,46,14.00
2007,06,07,18,47,13.90
2007,06,07,18,48,13.90
2007,06,07,18,49,13.90
2007,06,07,18,50,13.80
2007,06,07,18,51,13.80
2007,06,07,18,52,13.70
2007,06,07,18,53,13.60
2007,06,07,18,54,13.50
2007,06,07,18,55,13.50
2007,06,07,18,56,13.40
2007,06,07,18,57,13.40
2007,06,07,18,58,13.30
2007,06,07,18,59,13.20
2007,06,07,19,00,13.20
2007,06,07,19,01,13.20
2007,06,07,19,02,13.10
2007,06,07,19,03,13.00
2007,06,07,19,04,13.00
2007,06,07,19,05,13.00
2007,06,07,19,06,12.90
2007,06,07,19,07,12.90
2007,06,07,19,08,12.90
2007,06,07,19,09,12.90
2007,06,07,19,10,12.90
2007,06,07,19,11,12.90
2007,06,07,19,12,12.90
2007,06,07,19,13,12.90
2007,06,07,19,14,12.90
2007,06,07,19,15,13.00
2007,06,07,19,16,13.00
2007,06,07,19,17,13.00
2007,06,07,19,18,13.10
2007,06,07,19,19,13.10
2007,06,07,19,20,13.20
2007,06,07,19,21,13.30
2007,06,07,19,22,13.30
2007,06,07,19,23,13.40
2007,06,07,19,24,13.50
2007,06,07,19,25,13.50
2007,06,07,19,26,13.60
2007,06,07,19,27,13.70
2007,06,07,19,28,13.60
2007,06,07,19,29,13.60
2007,06,07,19,30,13.50
2007,06,07,19,31,13.50
2007,06,07,19,32,13.40
2007,06,07,19,33,13.40
2007,06,07,19,34,13.30
2007,06,07,19,35,13.30
2007,06,07,19,36,13.30
2007,06,07,19,37,13.30
2007,06,07,19,38,13.30
2007,06,07,19,39,13.30
2007,06,07,19,40,13.20
2007,06,07,19,41,13.20
2007,06,07,19,42,13.20
2007,06,07,19,43,13.10
2007,06,07,19,44,13.10
2007,06,07,19,45,13.00
2007,06,07,19,46,12.90
2007,06,07,19,47,12.90
2007,06,07,19,48,12.90
2007,06,07,19,49,12.90
2007,06,07,19,50,12.90
2007,06,07,19,51,12.80
2007,06,07,19,52,12.80
2007,06,07,19,53,12.80
2007,06,07,19,54,12.80
2007,06,07,19,55,12.80
2007,06,07,19,56,12.80
2007,06,07,19,57,12.80
2007,06,07,19,58,12.80
2007,06,07,19,59,12.80
2007,06,07,20,00,12.80
2007,06,07,20,01,12.80
2007,06,07,20,02,12.80
2007,06,07,20,03,12.80
2007,06,07,20,04,12.80
2007,06,07,20,05,12.80
2007,06,07,20,06,12.80
2007,06,07,20,07,12.70
2007,06,07,20,08,12.60
2007,06,07,20,09,12.60
2007,06,07,20,10,12.50
2007,06,07,20,11,12.40
2007,06,07,20,12,12.40
2007,06,07,20,13,12.30
2007,06,07,20,14,12.30
2007,06,07,20,15,12.20
2007,06,07,20,16,12.20
2007,06,07,20,17,12.20
2007,06,07,20,18,12.10
2007,06,07,20,19,12.10
2007,06,07,20,20,12.10
2007,06,07,20,21,12.00
2007,06,07,20,22,11.90
2007,06,07,20,23,11.90
2007,06,07,20,24,11.80
2007,06,07,20,25,11.80
2007,06,07,20,26,11.70
2007,06,07,20,27,11.70
2007,06,07,20,28,11.70
2007,06,07,20,29,11.60
2007,06,07,20,30,11.60
2007,06,07,20,31,11.50
2007,06,07,20,32,11.50
2007,06,07,20,33,11.40
2007,06,07,20,34,11.40
2007,06,07,20,35,11.40
2007,06,07,20,36,11.40
2007,06,07,20,37,11.30
2007,06,07,20,38,11.30
2007,06,07,20,39,11.30
2007,06,07,20,40,11.30
2007,06,07,20,41,11.30
2007,06,07,20,42,11.30
2007,06,07,20,43,11.30
2007,06,07,20,44,11.20
2007,06,07,20,45,11.20
2007,06,07,20,46,11.20
2007,06,07,20,47,11.20
2007,06,07,20,48,11.20
2007,06,07,20,49,11.10
2007,06,07,20,50,11.10
2007,06,07,20,51,11.10
2007,06,07,20,52,11.00
2007,06,07,20,53,11.00
2007,06,07,20,54,10.90
2007,06,07,20,55,10.90
2007,06,07,20,56,10.90
2007,06,07,20,57,10.80
2007,06,07,20,58,10.80
2007,06,07,20,59,10.70
2007,06,07,21,00,10.70
2007,06,07,21,01,10.70
2007,06,07,21,02,10.70
2007,06,07,21,03,10.60
2007,06,07,21,04,10.60
2007,06,07,21,05,10.60
2007,06,07,21,06,10.60
2007,06,07,21,07,10.60
2007,06,07,21,08,10.60
2007,06,07,21,09,10.50
2007,06,07,21,10,10.50
2007,06,07,21,11,10.50
2007,06,07,21,12,10.50
2007,06,07,21,13,10.50
2007,06,07,21,14,10.40
2007,06,07,21,15,10.40
2007,06,07,21,16,10.40
2007,06,07,21,17,10.40
2007,06,07,21,18,10.30
2007,06,07,21,19,10.30
2007,06,07,21,20,10.20
2007,06,07,21,21,10.20
2007,06,07,21,22,10.20
2007,06,07,21,23,10.20
2007,06,07,21,24,10.20
2007,06,07,21,25,10.10
2007,06,07,21,26,10.10
2007,06,07,21,27,10.10
2007,06,07,21,28,10.10
2007,06,07,21,29,10.00
2007,06,07,21,30,10.00
2007,06,07,21,31,10.00
2007,06,07,21,32,9.90
2007,06,07,21,33,9.90
2007,06,07,21,34,9.90
2007,06,07,21,35,9.80
2007,06,07,21,36,9.80
2007,06,07,21,37,9.80
2007,06,07,21,38,9.80
2007,06,07,21,39,9.70
2007,06,07,21,40,9.70
2007,06,07,21,41,9.70
2007,06,07,21,42,9.60
2007,06,07,21,43,9.60
2007,06,07,21,44,9.60
2007,06,07,21,45,9.60
2007,06,07,21,46,9.60
2007,06,07,21,47,9.50
2007,06,07,21,48,9.50
2007,06,07,21,49,9.50
2007,06,07,21,50,9.40
2007,06,07,21,51,9.40
2007,06,07,21,52,9.30
2007,06,07,21,53,9.30
2007,06,07,21,54,9.20
2007,06,07,21,55,9.20
2007,06,07,21,56,9.10
2007,06,07,21,57,9.10
2007,06,07,21,58,9.00
2007,06,07,21,59,9.00
2007,06,07,22,00,8.90
2007,06,07,22,01,8.90
2007,06,07,22,02,8.80
2007,06,07,22,03,8.80
2007,06,07,22,04,8.70
2007,06,07,22,05,8.70
2007,06,07,22,06,8.60
2007,06,07,22,07,8.60
2007,06,07,22,08,8.50
2007,06,07,22,09,8.50
2007,06,07,22,10,8.40
2007,06,07,22,11,8.40
2007,06,07,22,12,8.40
2007,06,07,22,13,8.30
2007,06,07,22,14,8.30
2007,06,07,22,15,8.30
2007,06,07,22,16,8.20
2007,06,07,22,17,8.20
2007,06,07,22,18,8.20
2007,06,07,22,19,8.20
2007,06,07,22,20,8.10
2007,06,07,22,21,8.10
2007,06,07,22,22,8.00
2007,06,07,22,23,8.00
2007,06,07,22,24,7.90
2007,06,07,22,25,7.90
2007,06,07,22,26,7.90
2007,06,07,22,27,7.90
2007,06,07,22,28,7.80
2007,06,07,22,29,7.80
2007,06,07,22,30,7.80
2007,06,07,22,31,7.80
2007,06,07,22,32,7.70
2007,06,07,22,33,7.70
2007,06,07,22,34,7.70
2007,06,07,22,35,7.70
2007,06,07,22,36,7.60
2007,06,07,22,37,7.60
2007,06,07,22,38,7.60
2007,06,07,22,39,7.60
2007,06,07,22,40,7.50
2007,06,07,22,41,7.50
2007,06,07,22,42,7.40
2007,06,07,22,43,7.40
2007,06,07,22,44,7.40
2007,06,07,22,45,7.30
2007,06,07,22,46,7.30
2007,06,07,22,47,7.30
2007,06,07,22,48,7.30
2007,06,07,22,49,7.20
2007,06,07,22,50,7.20
2007,06,07,22,51,7.20
2007,06,07,22,52,7.20
2007,06,07,22,53,7.20
2007,06,07,22,54,7.20
2007,06,07,22,55,7.20
2007,06,07,22,56,7.20
2007,06,07,22,57,7.20
2007,06,07,22,58,7.20
2007,06,07,22,59,7.20
2007,06,07,23,00,7.20
2007,06,07,23,01,7.20
2007,06,07,23,02,7.20
2007,06,07,23,03,7.20
2007,06,07,23,04,7.20
2007,06,07,23,05,7.20
2007,06,07,23,06,7.20
2007,06,07,23,07,7.20
2007,06,07,23,08,7.20
2007,06,07,23,09,7.20
2007,06,07,23,10,7.10
2007,06,07,23,11,7.10
2007,06,07,23,12,7.10
2007,06,07,23,13,7.10
2007,06,07,23,14,7.10
2007,06,07,23,15,7.00
2007,06,07,23,16,7.00
2007,06,07,23,17,7.10
2007,06,07,23,18,7.10
2007,06,07,23,19,7.10
2007,06,07,23,20,7.10
2007,06,07,23,21,7.10
2007,06,07,23,22,7.10
2007,06,07,23,23,7.10
2007,06,07,23,24,7.10
2007,06,07,23,25,7.10
2007,06,07,23,26,7.00
2007,06,07,23,27,7.00
2007,06,07,23,28,7.00
2007,06,07,23,29,7.00
2007,06,07,23,30,7.00
2007,06,07,23,31,7.00
2007,06,07,23,32,6.90
2007,06,07,23,33,6.90
2007,06,07,23,34,6.90
2007,06,07,23,35,6.90
2007,06,07,23,36,7.00
2007,06,07,23,37,7.00
2007,06,07,23,38,7.10
2007,06,07,23,39,7.10
2007,06,07,23,40,7.10
2007,06,07,23,41,7.00
2007,06,07,23,42,7.00
2007,06,07,23,43,7.00
2007,06,07,23,44,7.00
2007,06,07,23,45,7.00
2007,06,07,23,46,7.00
2007,06,07,23,47,6.90
2007,06,07,23,48,6.90
2007,06,07,23,49,6.90
2007,06,07,23,50,6.90
2007,06,07,23,51,6.90
2007,06,07,23,52,6.80
2007,06,07,23,53,6.90
2007,06,07,23,54,6.90
2007,06,07,23,55,6.90
2007,06,07,23,56,6.80
2007,06,07,23,57,6.80
2007,06,07,23,58,6.80
2007,06,07,23,59,6.80
